sat.trackr.live / text

‹ back to catalog

CAPELLA-15 (ACADIA-5)

NORAD 60544 · 2024-149CE

PAYLOAD ACTIVE UNKNOWN

§ Identity

Operator
Country
US
Launch date
2024-08-16
Launch site
AFWTR
Launch vehicle
Mass (kg)
RCS (m²)

External: N2YO · Heavens-Above · Gunter

§ Orbital elements

Epoch: 2026-05-25T04:35:36.695616Z

Period
96.48 min
Inclination
97.6770°
Eccentricity
0.0005079
Mean motion
14.92487788 rev/d
Perigee alt
586.6 km
Apogee alt
593.7 km
Semi-major
6,968.3 km
B*
5.3562e-4
RAAN
218.6679°
Arg perigee
144.4189°
Mean anomaly
215.7370°
Rev number
9,642

§ Raw data

CAPELLA-15 (ACADIA-5)1 60544U 24149CE  26145.19139694  .00005444  00000+0  53562-3 0  99992 60544  97.6770 218.6679 0005079 144.4189 215.7370 14.92487788 96422

JSON: /api/v1/satellites/60544 · /tle

For live sub-satellite position, see the globe view (requires WebGL).

§ Visibility from observer

Set your observer location to see the next 7 days of passes ≥ 10°. The values pass through the URL so the page stays shareable.

No JS? Fill the form by hand. The geolocation button needs JavaScript.